ONEWEB-0129 (47275 NORAD) Tracking and Keplerian Element Data

This shows tracking and keplerian element data for the satellite.

Feedback or suggestion? Click here.




ElementValue
Catalog47275
NameONEWEB-0129
Epoch Orbit173
Epoch Day62.91667824
Epoch Year2021
RAAN15.5981
Inclination87.5879
Eccentricity0.0012919
Argument of Perigee30.5361
Mean Anonmoly66.8172
Mean Motion13.97430893
Decay Rate-0.00025791
L11 47275U 20100T 21062.91667824 -.00025791 00000-0 -18438-1 0 9993
L22 47275 87.5879 15.5981 0012919 30.5361 66.8172 13.97430893 1738

Live tracking and technical data element details for ONEWEB-0129 (NORAD 47275). ONEWEB-0129 can be tracked NOW for your location showing map with azimuth and elevation plus other details from your city location.

Track the satellite on the map from your city or location and see movement details for azimuth, elevation, latitude, longitude, range, height, and movement on the map or in text.







IsCatalogInMostPopularTable: catalog: 47275, numindb: 24
Update: records affected: 1



GetName: 47275 ONEWEB-0129

Hit Count: updated at: Fri, 05 Mar 2021 07:32:34 GMT